Location: Borojevi?i
(45.0486°N, 16.2297°E)
Time: 05:14:31
(UTC+00:00)

Cosmos 44 Rocket - Pass Details

Date: 08 August 2020
Orbit: 647 x 743 km, 65.1° (Epoch: 19 September)

Event Time Altitude Azimuth Distance (km) Brightness Sun altitude
Rises 22:50:19 0° 328° (NNW) 3,088 7.5 -29.1°
Reaches altitude 10° 22:52:43 10° 334° (NNW) 2,182 6.6 -29.1°
Enters shadow 22:57:32 48° 48° (NE) 941 4.1 -29.2°
